{"data":{"norad_id":62166,"intl_designator":"2024-225D","name":"STARLINK-32551","alt_names":[],"object_type":"PAYLOAD","status":"ACTIVE","operator":null,"country":"US","launch_date":"2024-11-30","launch_site_code":"AFWTR","launch_vehicle":null,"mission":null,"orbit_class":"UNKNOWN","rcs_meters":null,"size_class":null,"mass_kg":null,"dimensions":null,"purposes":["comms"],"wikipedia_slug":null,"has_3d_model":false,"image_url":null,"decayed_at":null,"tle_current":{"epoch":"2026-09-21T19:24:57.151584Z","epoch_age_seconds":68348,"freshness":"FRESH","line1":"1 62166U 24225D   26264.80899481  .00273790  00000+0  21348-1 0  9999","line2":"2 62166  70.0009  29.8975 0003721 277.5550  82.5187 14.99614723 99255","mean_motion":14.99614723,"eccentricity":0.0003721,"inclination_deg":70.0009,"raan_deg":29.8975,"arg_perigee_deg":277.555,"mean_anomaly_deg":82.5187,"bstar":0.021348,"rev_number":9925,"period_min":96.024664062997,"perigee_km":565.50113812624,"apogee_km":570.67051715457,"semimajor_km":6946.2228276404,"source":"CELESTRAK","updated_at":"2026-09-22T09:00:49.534502Z"}}}